FW6146 Weather Reports


Display with metric or nautical units.
time (UTC)temp
F
wind
direction
speed
MPH
gust
MPH
rain 1hr
in
rain 24hr
in
rain mn
in
humidity
%
barometer
mb
20260509203039 59 336 1.0 3.0 0.01 0.05 0.05 78 1010.9
20260509201931 59 268 2.0 3.0 0.01 0.05 0.05 76 1011.0
20260509200937 59 285 2.0 6.0 0.01 0.05 0.05 78 1010.8
20260509195903 58 316 1.0 2.0 0.01 0.05 0.05 82 1010.9
20260509194921 58 0.0 1.0 0.00 0.04 0.04 82 1011.0
20260509193907 59 0.0 2.0 0.00 0.04 0.04 79 1011.1
20260509192925 59 313 2.0 3.0 0.00 0.04 0.04 77 1011.2
20260509191911 59 313 0.0 2.0 0.00 0.04 0.04 77 1011.3
20260509190930 59 314 0.0 1.0 0.00 0.04 0.04 78 1011.4
20260509185916 59 316 1.0 2.0 0.00 0.04 0.04 77 1011.3
20260509184954 58 319 0.0 1.0 0.00 0.04 0.04 78 1011.4
20260509183920 58 0.0 1.0 0.01 0.04 0.04 79 1011.4
20260509182905 58 0.0 0.0 0.01 0.04 0.04 80 1011.3
20260509181924 58 315 0.0 2.0 0.01 0.04 0.04 79 1011.6
20260509180908 57 0.0 0.0 0.01 0.04 0.04 81 1011.3
20260509175927 56 298 1.0 2.0 0.01 0.04 0.04 81 1011.9
20260509174911 57 323 0.0 2.0 0.01 0.04 0.04 81 1012.0
20260509173929 58 290 2.0 7.0 0.00 0.03 0.03 78 1012.1
20260509172914 59 311 2.0 2.0 0.00 0.03 0.03 76 1012.1
20260509171952 59 315 0.0 3.0 0.00 0.03 0.03 73 1012.1
20260509170918 59 291 1.0 3.0 0.00 0.03 0.03 73 1012.2
20260509165956 59 290 2.0 5.0 0.00 0.03 0.03 73 1011.7
20260509164920 58 313 0.0 1.0 0.00 0.03 0.03 76 1012.2
20260509163939 58 315 0.0 1.0 0.00 0.03 0.03 77 1012.1
20260509162922 58 319 1.0 2.0 0.00 0.03 0.03 75 1012.3
20260509161941 57 319 1.0 2.0 0.00 0.03 0.03 77 1012.4
20260509160926 57 0.0 1.0 0.00 0.03 0.03 79 1012.4
20260509155944 56 0.0 1.0 0.00 0.03 0.03 79 1012.6
20260509154929 57 346 1.0 3.0 0.00 0.03 0.03 78 1012.9
20260509153914 56 338 0.0 2.0 0.00 0.03 0.03 80 1012.9
20260509152930 55 320 0.0 2.0 0.00 0.03 0.03 80 1013.1
20260509151914 55 320 0.0 1.0 0.00 0.03 0.03 79 1013.0
20260509150932 55 323 1.0 3.0 0.00 0.03 0.03 78 1013.1
20260509145916 53 353 0.0 1.0 0.00 0.03 0.03 78 1012.9
20260509144934 53 0.0 5.0 0.00 0.03 0.03 79 1013.2
20260509143917 52 0.0 0.0 0.00 0.03 0.03 80 1013.3
20260509142957 51 358 0.0 1.0 0.00 0.03 0.03 82 1013.2
20260509141940 51 0.0 0.0 0.00 0.03 0.03 88 1013.7
20260509140939 49 0.0 0.0 0.00 0.03 0.03 90 1013.7
20260509135924 48 0.0 0.0 0.00 0.03 0.03 92 1013.9
20260509134942 49 0.0 0.0 0.00 0.03 0.03 94 1013.9
20260509133926 48 0.0 0.0 0.00 0.03 0.03 95 1014.0
20260509132944 48 0.0 0.0 0.00 0.03 0.03 95 1014.1
20260509131949 46 0.0 0.0 0.01 0.03 0.03 95 1014.2
20260509130949 45 0.0 0.0 0.01 0.03 0.03 95 1014.2
20260509125934 45 0.0 0.0 0.01 0.03 0.03 95 1014.2
20260509124951 44 0.0 0.0 0.02 0.03 0.03 95 1014.0
20260509123956 44 0.0 0.0 0.02 0.03 0.03 95 1014.1
20260509122941 44 0.0 0.0 0.02 0.03 0.03 94 1014.2
20260509121936 43 0.0 0.0 0.02 0.02 0.02 94 1014.2
20260509120921 43 0.0 0.0 0.02 0.02 0.02 94 1014.5
20260509115939 42 0.0 0.0 0.02 0.02 0.02 94 1014.5
20260509114922 42 0.0 0.0 0.01 0.01 0.01 93 1014.6
20260509113940 42 0.0 0.0 0.01 0.01 0.01 93 1014.6
20260509113006 42 0.0 1.0 0.01 0.01 0.01 92 1014.7
20260509112006 41 0.0 1.0 0.00 0.00 0.00 91 1014.8
20260509110930 41 0.0 1.0 0.00 0.00 0.00 91 1014.9
20260509105948 41 0.0 0.0 0.00 0.00 0.00 90 1014.6
20260509104933 41 4 1.0 2.0 0.00 0.00 0.00 90 1014.4
20260509103952 41 320 1.0 1.0 0.00 0.00 0.00 89 1014.4
20260509102937 40 11 1.0 2.0 0.00 0.00 0.00 89 1014.2
20260509101956 40 0.0 0.0 0.00 0.00 0.00 89 1013.9
20260509101001 40 0.0 0.0 0.00 0.00 0.00 89 1013.7
20260509100006 40 0.0 0.0 0.00 0.00 0.00 89 1013.6
20260509094946 40 0.0 0.0 0.00 0.00 0.00 89 1013.5
20260509093950 39 0.0 0.0 0.00 0.00 0.00 89 1013.4
20260509092948 39 0.0 0.0 0.00 0.00 0.00 89 1013.4
20260509091931 39 0.0 0.0 0.00 0.00 0.00 90 1013.4
20260509090950 38 0.0 0.0 0.00 0.00 0.00 89 1013.3
20260509085935 38 0.0 0.0 0.00 0.00 0.00 89 1013.5
20260509084953 38 0.0 0.0 0.00 0.00 0.00 88 1013.5
20260509083938 39 0.0 0.0 0.00 0.00 0.00 87 1013.2
20260509082957 39 0.0 0.0 0.00 0.00 0.00 87 1013.4
20260509081942 39 0.0 0.0 0.00 0.00 0.00 87 1013.3
20260509081020 39 0.0 0.0 0.00 0.00 0.00 87 1013.5
20260509080005 39 0.0 0.0 0.00 0.00 0.00 88 1013.6
20260509075004 38 0.0 0.0 0.00 0.00 0.00 87 1013.6
20260509073950 40 0.0 0.0 0.00 0.00 0.00 86 1013.3
20260509072935 40 0.0 0.0 0.00 0.00 0.00 85 1013.6
20260509071954 40 0.0 0.0 0.00 0.00 0.00 84 1013.6
20260509071019 40 0.0 0.0 0.00 0.00 0.00 84 1013.6
20260509065958 40 0.0 0.0 0.00 0.00 0.00 84 1013.5
20260509064943 40 0.0 0.0 0.00 0.00 0.00 86 1013.5
20260509064002 39 0.0 0.0 0.00 0.00 0.00 86 1013.4
20260509062947 40 0.0 0.0 0.00 0.00 0.00 84 1013.4
20260509062005 40 0.0 0.0 0.00 0.00 0.00 83 1013.3
20260509060951 41 0.0 0.0 0.00 0.00 0.00 82 1013.1
20260509055937 41 0.0 0.0 0.00 0.00 0.00 83 1013.3
20260509054954 41 0.0 0.0 0.00 0.00 0.00 82 1013.3
20260509053937 42 0.0 0.0 0.00 0.00 0.00 79 1013.4
20260509052956 42 0.0 0.0 0.00 0.00 0.00 79 1013.2
20260509051941 42 0.0 0.0 0.00 0.00 0.00 79 1013.3
20260509051000 42 0.0 0.0 0.00 0.00 0.00 78 1013.4
20260509045944 43 0.0 0.0 0.00 0.00 0.00 77 1013.4
20260509045003 42 0.0 0.0 0.00 0.00 0.00 78 1013.1
20260509044009 43 0.0 0.0 0.00 0.00 0.00 77 1013.2
20260509043007 43 0.0 0.0 0.00 0.00 0.00 76 1013.1
20260509041952 43 0.0 0.0 0.00 0.00 0.00 75 1013.0
20260509041011 44 0.0 0.0 0.00 0.00 0.00 74 1012.9
20260509035956 45 0.0 0.0 0.00 0.00 0.00 73 1012.9
20260509035014 44 0.0 0.0 0.00 0.00 0.00 72 1012.8
20260509033959 45 0.0 0.0 0.00 0.00 0.00 72 1012.8
20260509032943 46 0.0 0.0 0.00 0.00 0.00 71 1012.6
20260509032001 46 0.0 0.0 0.00 0.00 0.00 71 1012.9
20260509030947 47 0.0 0.0 0.00 0.00 0.00 69 1012.8
20260509030006 47 0.0 0.0 0.00 0.00 0.00 68 1012.7
20260509024951 47 0.0 0.0 0.00 0.00 0.00 66 1012.6
20260509024009 47 0.0 0.0 0.00 0.00 0.00 66 1012.6
20260509022954 48 0.0 0.0 0.00 0.00 0.00 64 1012.5
20260509022012 48 0.0 0.0 0.00 0.00 0.00 64 1012.5
20260509020958 48 0.0 0.0 0.00 0.00 0.00 64 1012.2
20260509020037 49 0.0 0.0 0.00 0.00 0.00 60 1012.1
20260509015003 49 0.0 0.0 0.00 0.00 0.00 60 1011.9
20260509013948 50 0.0 1.0 0.00 0.00 0.00 59 1011.7
20260509013005 50 0.0 0.0 0.00 0.00 0.00 58 1011.6
20260509011950 50 0.0 1.0 0.00 0.00 0.00 57 1011.3
20260509011009 51 307 1.0 1.0 0.00 0.00 0.00 57 1011.3
20260509005954 51 309 1.0 2.0 0.00 0.00 0.00 56 1011.0
20260509005012 51 346 0.0 1.0 0.00 0.00 0.00 55 1010.9
20260509003957 52 0.0 0.0 0.00 0.00 0.00 54 1010.7
20260509003036 52 0.0 0.0 0.00 0.00 0.00 53 1010.3
20260509002001 52 314 0.0 1.0 0.00 0.00 0.00 52 1010.2
20260509001020 53 0.0 0.0 0.00 0.00 0.00 51 1009.9
20260509000005 53 0.0 1.0 0.00 0.00 0.00 50 1009.6
20260508235023 54 314 1.0 1.0 0.00 0.00 0.00 49 1009.7
20260508234030 54 314 1.0 1.0 0.00 0.00 0.00 49 1009.4
20260508232955 55 310 1.0 2.0 0.00 0.00 0.00 46 1009.2
20260508232013 55 307 1.0 3.0 0.00 0.00 0.00 45 1009.3
20260508230959 56 333 2.0 3.0 0.00 0.00 0.00 45 1009.2
20260508230018 56 336 1.0 2.0 0.00 0.00 0.00 45 1009.0
20260508225002 57 299 2.0 3.0 0.00 0.00 0.00 45 1009.1
20260508224020 57 337 1.0 5.0 0.00 0.00 0.00 43 1009.0
20260508223005 57 323 1.0 3.0 0.00 0.00 0.00 45 1009.0
20260508222023 57 329 3.0 5.0 0.00 0.00 0.00 45 1008.9
20260508221028 58 340 1.0 3.0 0.00 0.00 0.00 44 1009.0
20260508220027 58 355 2.0 5.0 0.00 0.00 0.00 45 1009.0
20260508215032 59 313 3.0 5.0 0.00 0.00 0.00 44 1008.8
20260508214029 58 308 3.0 5.0 0.00 0.00 0.00 43 1008.6
20260508213013 59 317 1.0 3.0 0.00 0.00 0.00 44 1008.8
20260508211959 59 349 1.0 3.0 0.00 0.00 0.00 44 1008.5
20260508211016 58 274 3.0 5.0 0.00 0.00 0.00 45 1008.6
20260508210001 58 301 2.0 3.0 0.00 0.00 0.00 43 1008.7
20260508205019 59 305 4.0 6.0 0.00 0.00 0.00 43 1008.4
20260508204025 59 359 2.0 5.0 0.00 0.00 0.00 41 1008.4